Location: Mason Neck State Park
(38.6428°N, 77.1981°W)
Time: 16:38:43
(UTC-04:00)

Cosmos 2278 Rocket - Visible Passes

Search period start: 22 May 2015 00:00
Search period end: 01 June 2015 00:00
Orbit: 841 x 846 km, 71.0° (Epoch: 22 May)

Date Brightness Start Highest point End Pass type
(mag) Time Alt. Az. Time Alt. Az. Time Alt. Az.
22 May 2.5 00:47:36 10° NNW 00:52:16 62° NNW 00:52:16 62° NNW visible
22 May 4.3 22:51:00 10° NNE 22:53:46 14° NE 22:56:07 11° ENE visible
23 May 2.4 00:33:05 10° NNW 00:37:57 67° NNW 00:37:57 67° NNW visible
23 May 4.4 22:36:38 10° NNE 22:39:13 13° NE 22:41:50 10° ENE visible
24 May 2.3 00:18:35 10° NNW 00:23:40 73° NNW 00:23:40 73° NNW visible
24 May 4.4 22:22:17 10° NNE 22:24:39 13° NE 22:27:18 10° ENE visible
25 May 2.2 00:04:04 10° NNW 00:09:25 78° N 00:09:25 78° N visible
25 May 4.6 01:51:15 10° WNW 01:51:15 10° WNW 01:51:15 10° WNW visible
25 May 4.4 22:07:57 10° NNE 22:10:06 12° NE 22:12:31 10° ENE visible
25 May 2.1 23:49:34 10° NNW 23:55:11 80° ENE 23:55:11 80° ENE visible
26 May 4.5 01:36:25 10° WNW 01:37:02 11° W 01:37:02 11° W visible
26 May 4.4 21:53:38 10° NNE 21:55:32 12° NE 21:57:43 10° ENE visible
26 May 2.1 23:35:04 10° NNW 23:40:44 77° ENE 23:41:00 75° E visible
27 May 4.5 01:21:39 10° WNW 01:22:50 12° W 01:22:50 12° W visible
27 May 4.4 21:39:23 10° NNE 21:40:59 11° NE 21:42:53 10° ENE visible
27 May 2.1 23:20:34 10° NNW 23:26:13 74° ENE 23:26:50 67° ESE visible
28 May 4.4 01:06:55 10° WNW 01:08:41 13° W 01:08:41 13° W visible
28 May 4.4 21:25:10 10° NNE 21:26:25 11° NE 21:27:59 10° ENE visible
28 May 2.2 23:06:04 10° NNW 23:11:43 71° ENE 23:12:42 58° ESE visible
29 May 4.3 00:52:13 10° WNW 00:54:33 14° W 00:54:33 14° W visible
29 May 4.4 21:11:05 10° NE 21:11:51 10° NE 21:12:58 10° NE visible
29 May 2.2 22:51:33 10° NNW 22:57:12 68° ENE 22:58:36 49° SE visible
30 May 4.3 00:37:32 10° WNW 00:40:27 15° W 00:40:27 15° W visible
30 May 2.3 22:37:03 10° NNW 22:42:41 65° ENE 22:44:32 42° SE visible
31 May 4.2 00:22:52 10° WNW 00:26:16 16° W 00:26:23 16° WSW visible
31 May 2.3 22:22:34 10° NNW 22:28:10 62° ENE 22:30:30 35° SE visible
